User: anonymous   Login
Location: Niagara
(43.2500°N, 79.0670°W)
Time: 09:07:06
(UTC-04:00)
Language:

Tiangong 2 - Orbit

View from above orbital plane
View from above orbital plane
View from above satellite
View from above satellite

Ground track
Ground track

The orbit data is extracted from the following two-line orbital elements,

1 41765U 16057A   17291.08883381  .00007064  00000-0  92175-4 0  9996
2 41765  42.7837 344.7720 0002929 352.9169  89.8897 15.59217815 62168
Epoch (UTC): 18 October 2017 02:07:55
Eccentricity: 0.0002929
inclination: 42.7837°
perigee height: 388 km
apogee height: 392 km
right ascension of ascending node: 344.7720°
argument of perigee: 352.9169°
revolutions per day: 15.59217815
mean anomaly at epoch: 89.8897°
orbit number at epoch: 6216

The dashed part of the orbit path shows where the satellite is in the earth's shadow,  

DLR